www.pogodaiklimat.ru

Погода и климат >> Архив погоды >> Пакистан >> Sargodha


ПОГОДА в Sargodha

  • Прогноз погоды в Sargodha
  • Монитор погоды в Sargodha
  • Климат города

АРХИВ ПОГОДЫ в Sargodha

Время (UTC), дата Ветер
(напр.,м/с)
 
Видим.   Явления Облачность Т
(С)
Тd
(С)
f
(%)
Тe
(С)
Тes
(С)
Комфортность P
(гПа)
Po
(гПа)
Тmin
(С)
Tmax
(С)
R
(мм)
R24
(мм)
S
(см)
00 12.12 штиль 0 н/о дымка 3/0
[Ac trans]
+7.0 +5.9 93 +6 +6 1018.2 995.5
03 12.12 штиль 0 1000 м дымка ясно +7.5 +6.9 96 +6 +7 1020.1 997.4 +5.5
06 12.12 В 4 4000 м мгла ясно +16.5 +7.0 53 +16 +20 1020.8 998.8
09 12.12 СВ 5 10 км 3/3 1000 м
[Sc]
+18.0 +8.3 53 +18 +19 1020.2 996.8
12 12.12 СВ 3 н/о мгла 3/3 1000 м
[Sc]
+16.0 +9.3 64 +16 +16 1019.0 997.0 +18.5
15 12.12 СВ 3 <100 м мгла 3/0
[Ac trans]
+13.5 +10.2 80 +13 +13 1021.6 999.2
18 12.12 СВ 2 <100 м дымка ясно +11.5 +9.2 86 +10 +10 1021.6 999.2
21 12.12 СВ 2 н/о дымка ясно +9.0 +6.9 87 +7 +7 1022.7 1000.2
00 13.12 штиль 0 <100 м дымка ясно +8.0 +5.8 86 +7 +7 1023.0 1000.2
03 13.12 штиль 0 1000 м дымка ясно +7.5 +6.9 96 +6 +7 1024.5 1001.7 +6.5
06 13.12 ЮЗ 3 4000 м мгла ясно +16.0 +9.3 64 +16 +21 1025.2 1003.0
09 13.12 З 3 10 км 1/1 1000 м
[Sc diur, vesp]
+19.0 +8.5 51 +20 +24 1022.1 1000.2
12 13.12 ЮЗ 3 10 км ясно +16.5 +9.4 63 +16 +16 1021.7 999.7 +19.5
15 13.12 З 2 н/о мгла ясно +12.0 +7.9 76 +11 +11 1024.0 1001.6
18 13.12 штиль 0 <100 м мгла ясно +10.0 +7.9 87 +9 +9 1024.4 1001.8
21 13.12 штиль 0 н/о дымка ясно +9.0 +8.0 93 +8 +8 1024.2 1001.5
00 14.12 штиль 0 <100 м туман ясно +6.0 +6.0 100 +5 +5 1024.5 1001.6
03 14.12 ЮЗ 1 <100 м туман ясно +5.0 +5.0 100 +3 +4 1026.3 1003.2 +3.5
06 14.12 З 2 4000 м мгла {туман} ясно +18.0 +7.1 49 +19 +26 1026.6 1004.5
09 14.12 СЗ 2 10 км ясно +19.5 +6.0 41 +21 +26 комфорт 1024.3 1002.6
12 14.12 З 1 10 км ясно +17.5 +7.1 50 +19 +19 1025.6 1002.1 +20.5
15 14.12 СЗ 1 <100 м мгла ясно +12.5 +8.0 74 +13 +13 1025.8 1003.4
18 14.12 штиль 0 <100 м дымка ясно +11.0 +7.1 77 +10 +10 1026.7 1003.2
21 14.12 СЗ 1 <100 м дымка ясно +8.0 +6.9 93 +7 +7 1024.9 1002.2
00 15.12 штиль 0 <100 м туман ясно +4.0 +4.0 100 +3 +3 1024.1 1001.0
03 15.12 штиль 0 500 м дымка ясно +6.0 +4.8 92 +5 +6 1025.0 1002.3 +3.5
06 15.12 СВ 2 4000 м мгла {туман} ясно +19.0 +4.5 38 +20 +26 1025.5 1003.4
09 15.12 СВ 2 10 км ясно +21.0 +1.5 27 +22 +28 комфорт 1023.1 1001.4
12 15.12 З 1 4000 м мгла ясно +17.5 +5.8 46 +19 +19 1023.2 1001.3 +21.5
15 15.12 штиль 0 <100 м мгла ясно +11.0 +5.8 70 +11 +11 1025.0 1002.5
18 15.12 штиль 0 <100 м дымка ясно +8.5 +6.9 90 +8 +8 1026.6 1003.0
21 15.12 штиль 0 <100 м дымка ясно +7.0 +5.9 93 +6 +6 1025.4 1001.9
00 16.12 штиль 0 н/о ясно +4.0 +2.8 92 +3 +3 1024.5 1001.4
03 16.12 штиль 0 1000 м дымка ясно +6.0 +3.6 85 +5 +6 1025.4 1002.5 +25.1
06 16.12 ЮЗ 2 4000 м мгла ясно +18.5 +5.9 44 +20 +26 1026.0 1004.0
09 16.12 З 2 10 км ясно +21.0 +3.2 31 +22 +27 комфорт 1023.1 1001.4
12 16.12 ЮЗ 1 10 км ясно +18.0 +5.8 45 +19 +19 1022.1 1000.2 +21.5
15 16.12 штиль 0 н/о мгла ясно +12.0 +4.5 60 +12 +12 1023.2 1000.8
18 16.12 штиль 0 <100 м мгла ясно +9.0 +5.3 78 +8 +8 1023.9 1001.2
21 16.12 штиль 0 <100 м дымка ясно +7.5 +5.8 89 +7 +7 1023.6 1000.8
03 17.12 штиль 0 1000 м мгла ясно +5.0 +3.8 92 +4 +5 1024.4 1001.4 +3.1
06 17.12 ЮЗ 3 4000 м мгла ясно +18.0 +5.8 45 +18 +23 1023.8 1001.9
09 17.12 З 4 10 км ясно +22.0 +1.7 26 +22 +25 комфорт 1020.7 999.1
12 17.12 ЮЗ 2 10 км ясно +18.0 +4.4 41 +19 +19 1019.9 998.8 +22.5
15 17.12 штиль 0 <100 м мгла ясно +11.0 +4.3 63 +11 +11 1021.3 998.8
18 17.12 штиль 0 н/о мгла ясно +9.0 +5.3 78 +8 +8 1022.3 999.6
21 17.12 штиль 0 <100 м дымка ясно +7.0 +4.7 85 +6 +6 1021.4 998.6
00 18.12 штиль 0 <100 м дымка ясно +4.5 +3.8 95 +3 +3 1021.3 998.2
03 18.12 ЮЗ 2 1000 м дымка 3/0
[Ci fib]
+7.0 +4.7 85 +5 +5 1022.5 999.0 +3.5
06 18.12 ЮЗ 4 4000 м мгла ясно +18.0 +4.4 41 +18 +22 1021.1 999.2
09 18.12 ЮЗ 3 10 км 1/0
[Ci fib]
+22.0 +3.4 29 +22 +26 комфорт 1018.1 996.8
12 18.12 ЮЗ 2 10 км 3/0
[Ci fib]
+20.0 +4.6 36 +21 +21 комфорт 1017.3 995.6 +22.5
15 18.12 ЮЗ 1 <100 м мгла 3/0
[Ci fib]
+13.0 +4.3 55 +13 +13 1019.5 997.2
18 18.12 штиль 0 <100 м мгла 4/0
[Ci fib]
+10.5 +5.8 73 +10 +10 1019.4 997.0

 

Местоположение метеостанции Sargodha (Пакистан): широта 32.05 долгота 72.67 высота над уровнем моря 188 м.

В архиве по умолчанию представлена погода в Sargodha за последнюю неделю. Архивные данные за месяц целиком и за предыдущие месяцы, начиная с января 2011 года, Вы можете получить, выбрав интересующий диапазон дат из раскрывающегося списка и нажав кнопку "Ввод!".


*Определитесь, кто Вы:
робот инопланетянин человек

Внимание! Время в таблицах - всемирное. Для получения местного времени необходимо прибавить поправку, которая в Sargodha равна 5 ч.

Смотрите также архив погоды в соседних городах и на ближайших метеорологических станциях:

Погода в Faisal Abad (Пакистан) (80 км)
Погода в Mianwali (Пакистан) (122 км)
Погода в Jhelum (Пакистан) (139 км)
Погода в Raifiqui Airbase (Пакистан) (148 км)
Погода в Lahore City (Пакистан) (166 км)
Погода в Dera Ismail Khan (Пакистан) (167 км)
Погода в Islamabad (Пакистан) (179 км)
Погода в Sialkot (Пакистан) (182 км)
Погода в Kohat (Пакистан) (205 км)
Погода в Amritsar (Punjab, Индия) (213 км)

Пояснения к столбцам:

Ветер - указаны скорость ветра в м/с - средняя за 10 мин, порывы в срок и между сроками (в фигурных скобках) и направление, откуда дует ветер: С - северный, СВ - северо-восточный, В - восточный, ЮВ - юго-восточный, Ю - южный, ЮЗ - юго-западный, З - западный, СЗ - северо-западный.
Видимость - горизонтальная дальность видимости в метрах или километрах. При видимости от 1 до 10 км при отсутствии осадков обычно наблюдается дымка, при ухудшении видимости до 1 км и менее - туман. В сухую погоду видимость может ухудшаться дымом, пылью или мглою.
Явления - указаны атмосферные явления, наблюдавшиеся в срок или в последний час перед сроком; фигурными скобками обозначены явления, наблюдавшиеся между сроками (за 1-3 часа до срока); квадратными скобками обозначены град или гололедные отложения с указанием их диаметра в мм.
Облачность - указаны через наклонную черту общая и нижняя облачность в баллах и высота нижней границы облаков в метрах; квадратными скобками обозначены формы облаков: Ci - перистые, Cs - перисто-слоистые, Cc - перисто-кучевые, Ac - высококучевые, As - высокослоистые, Sc - слоисто-кучевые, Ns - слоисто-дождевые, Cu - кучевые, Cb - кучево-дождевые. Подробнее классификацию облаков см. в Атласе облаков (PDF).
T - Температура воздуха - температура, измеренная на высоте 2 м над землей.
Td - Температура точки росы - температура, при понижении до которой содержащийся в воздухе водяной пар достигнет насыщения.
f - Относительная влажность воздуха - влажноcть воздуха, измеренная на высоте 2 м над землей.
Te - Эффективная температура - температура, которую ощущает одетый по сезону человек в тени. Характеристика душности погоды. При расчете учитывается влияние влажности воздуха и скорости ветра на теплоощущения человека.
Tes - Эффективная температура на солнце - температура, которую ощущает человек, с поправкой на солнечный нагрев. Характеристика знойности погоды. Зависит от высоты солнца над горизонтом, облачности и скорости ветра. Ночью, в пасмурную погоду, а также при ветре 12 м/с и более поправка равна нулю.
P - Атмосферное давление - приведенное к уровню моря атмосферное давление.
Po - Атмосферное давление - измеренное на уровне метеостанции атмосферное давление.
Tmin - Минимальная температура - минимум температуры воздуха на высоте 2 м над землей.
Tmax - Максимальная температура - максимум температуры воздуха на высоте 2 м над землей.
R - Количество осадков - Количество выпавших осадков за период времени, мм. При наведении курсора мыши на число - период времени, за который выпало указанное количество осадков.
R24 - Количество осадков - Количество выпавших осадков за 24 часа, мм.
S - Снежный покров - Высота снежного покрова, см. При наведении курсора мыши на число - состояние снежного покрова и степень покрытия местности в баллах.